Location: Ojai
(34.4480°N, 119.2420°W)
Time: 13:01:53
(UTC-07:00)

N. Korean satellite - Visible Passes

Search period start: 18 October 2018 00:00
Search period end: 28 October 2018 00:00
Orbit: 459 x 510 km, 97.2° (Epoch: 17 October)

Date Brightness Start Highest point End Pass type
(mag) Time Alt. Az. Time Alt. Az. Time Alt. Az.
18 Oct 8.2 18:59:36 10° S 19:03:07 41° W 19:06:40 10° NNW visible
19 Oct 9.9 06:30:40 10° NE 06:33:20 19° E 06:35:57 10° SE visible
20 Oct 10.5 19:47:10 10° WSW 19:47:56 10° W 19:48:42 10° W visible
21 Oct 9.5 19:20:26 10° SSW 19:23:21 22° W 19:26:19 10° NW visible
22 Oct 7.9 18:55:17 10° S 18:58:52 47° W 19:02:29 10° NNW visible
23 Oct 10.0 06:26:38 10° NE 06:29:02 17° E 06:31:23 10° SE visible
23 Oct 6.6 18:30:45 10° SSE 18:34:26 76° ENE 18:38:10 10° N visible
24 Oct 10.3 19:42:08 10° WSW 19:43:38 12° W 19:45:07 10° WNW visible
25 Oct 9.2 19:15:58 10° SSW 19:19:03 25° W 19:22:10 10° NW visible
26 Oct 8.8 06:46:02 10° NNE 06:49:14 31° E 06:52:23 10° SSE visible
26 Oct 7.6 18:50:55 10° S 18:54:34 54° W 18:58:14 10° NNW visible
27 Oct 10.0 06:22:37 10° ENE 06:24:40 15° E 06:26:42 10° SE visible
27 Oct 6.6 18:26:27 10° SSE 18:30:09 66° ENE 18:33:51 10° N visible
